Year,Month,Day,Hour,Minute,Value (Times are PST for temperature in C)
2008,06,30,00,00,21.80
2008,06,30,00,01,21.80
2008,06,30,00,02,21.80
2008,06,30,00,03,21.70
2008,06,30,00,04,21.70
2008,06,30,00,05,21.70
2008,06,30,00,06,21.70
2008,06,30,00,07,21.60
2008,06,30,00,08,21.60
2008,06,30,00,09,21.60
2008,06,30,00,10,21.50
2008,06,30,00,11,21.50
2008,06,30,00,12,21.40
2008,06,30,00,13,21.40
2008,06,30,00,14,21.40
2008,06,30,00,15,21.40
2008,06,30,00,16,21.30
2008,06,30,00,17,21.30
2008,06,30,00,18,21.30
2008,06,30,00,19,21.20
2008,06,30,00,20,21.20
2008,06,30,00,21,21.20
2008,06,30,00,22,21.20
2008,06,30,00,23,21.10
2008,06,30,00,24,21.10
2008,06,30,00,25,21.10
2008,06,30,00,26,21.00
2008,06,30,00,27,21.00
2008,06,30,00,28,20.90
2008,06,30,00,29,20.90
2008,06,30,00,30,20.90
2008,06,30,00,31,20.80
2008,06,30,00,32,20.80
2008,06,30,00,33,20.80
2008,06,30,00,34,20.80
2008,06,30,00,35,20.70
2008,06,30,00,36,20.70
2008,06,30,00,37,20.70
2008,06,30,00,38,20.70
2008,06,30,00,39,20.70
2008,06,30,00,40,20.70
2008,06,30,00,41,20.60
2008,06,30,00,42,20.60
2008,06,30,00,43,20.60
2008,06,30,00,44,20.60
2008,06,30,00,45,20.60
2008,06,30,00,46,20.50
2008,06,30,00,47,20.50
2008,06,30,00,48,20.50
2008,06,30,00,49,20.40
2008,06,30,00,50,20.40
2008,06,30,00,51,20.40
2008,06,30,00,52,20.40
2008,06,30,00,53,20.30
2008,06,30,00,54,20.30
2008,06,30,00,55,20.30
2008,06,30,00,56,20.30
2008,06,30,00,57,20.30
2008,06,30,00,58,20.30
2008,06,30,00,59,20.30
2008,06,30,01,00,20.20
2008,06,30,01,01,20.20
2008,06,30,01,02,20.20
2008,06,30,01,03,20.20
2008,06,30,01,04,20.20
2008,06,30,01,05,20.20
2008,06,30,01,06,20.20
2008,06,30,01,07,20.20
2008,06,30,01,08,20.10
2008,06,30,01,09,20.10
2008,06,30,01,10,20.10
2008,06,30,01,11,20.10
2008,06,30,01,12,20.10
2008,06,30,01,13,20.10
2008,06,30,01,14,20.10
2008,06,30,01,15,20.10
2008,06,30,01,16,20.10
2008,06,30,01,17,20.10
2008,06,30,01,18,20.10
2008,06,30,01,19,20.10
2008,06,30,01,20,20.20
2008,06,30,01,21,20.20
2008,06,30,01,22,20.20
2008,06,30,01,23,20.20
2008,06,30,01,24,20.20
2008,06,30,01,25,20.20
2008,06,30,01,26,20.20
2008,06,30,01,27,20.20
2008,06,30,01,28,20.20
2008,06,30,01,29,20.20
2008,06,30,01,30,20.10
2008,06,30,01,31,20.10
2008,06,30,01,32,20.10
2008,06,30,01,33,20.10
2008,06,30,01,34,20.00
2008,06,30,01,35,20.00
2008,06,30,01,36,20.00
2008,06,30,01,37,20.00
2008,06,30,01,38,20.00
2008,06,30,01,39,20.00
2008,06,30,01,40,20.00
2008,06,30,01,41,20.00
2008,06,30,01,42,20.00
2008,06,30,01,43,20.00
2008,06,30,01,44,20.00
2008,06,30,01,45,20.00
2008,06,30,01,46,20.00
2008,06,30,01,47,20.00
2008,06,30,01,48,20.00
2008,06,30,01,49,20.10
2008,06,30,01,50,20.10
2008,06,30,01,51,20.10
2008,06,30,01,52,20.10
2008,06,30,01,53,20.10
2008,06,30,01,54,20.10
2008,06,30,01,55,20.10
2008,06,30,01,56,20.10
2008,06,30,01,57,20.10
2008,06,30,01,58,20.10
2008,06,30,01,59,20.10
2008,06,30,02,00,20.10
2008,06,30,02,01,20.10
2008,06,30,02,02,20.10
2008,06,30,02,03,20.10
2008,06,30,02,04,20.10
2008,06,30,02,05,20.10
2008,06,30,02,06,20.10
2008,06,30,02,07,20.10
2008,06,30,02,08,20.10
2008,06,30,02,09,20.10
2008,06,30,02,10,20.10
2008,06,30,02,11,20.10
2008,06,30,02,12,20.10
2008,06,30,02,13,20.10
2008,06,30,02,14,20.10
2008,06,30,02,15,20.00
2008,06,30,02,16,20.00
2008,06,30,02,17,20.00
2008,06,30,02,18,20.00
2008,06,30,02,19,20.00
2008,06,30,02,20,20.00
2008,06,30,02,21,20.00
2008,06,30,02,22,20.00
2008,06,30,02,23,20.00
2008,06,30,02,24,20.00
2008,06,30,02,25,20.00
2008,06,30,02,26,20.10
2008,06,30,02,27,20.10
2008,06,30,02,28,20.10
2008,06,30,02,29,20.10
2008,06,30,02,30,20.10
2008,06,30,02,31,20.10
2008,06,30,02,32,20.10
2008,06,30,02,33,20.10
2008,06,30,02,34,20.10
2008,06,30,02,35,20.10
2008,06,30,02,36,20.10
2008,06,30,02,37,20.10
2008,06,30,02,38,20.10
2008,06,30,02,39,20.10
2008,06,30,02,40,20.10
2008,06,30,02,41,20.10
2008,06,30,02,42,20.10
2008,06,30,02,43,20.20
2008,06,30,02,44,20.20
2008,06,30,02,45,20.10
2008,06,30,02,46,20.10
2008,06,30,02,47,20.10
2008,06,30,02,48,20.20
2008,06,30,02,49,20.20
2008,06,30,02,50,20.20
2008,06,30,02,51,20.20
2008,06,30,02,52,20.20
2008,06,30,02,53,20.20
2008,06,30,02,54,20.10
2008,06,30,02,55,20.10
2008,06,30,02,56,20.10
2008,06,30,02,57,20.10
2008,06,30,02,58,20.10
2008,06,30,02,59,20.10
2008,06,30,03,00,20.10
2008,06,30,03,01,20.10
2008,06,30,03,02,20.10
2008,06,30,03,03,20.10
2008,06,30,03,04,20.10
2008,06,30,03,05,20.10
2008,06,30,03,06,20.10
2008,06,30,03,07,20.10
2008,06,30,03,08,20.00
2008,06,30,03,09,20.00
2008,06,30,03,10,20.00
2008,06,30,03,11,20.00
2008,06,30,03,12,20.00
2008,06,30,03,13,20.00
2008,06,30,03,14,20.00
2008,06,30,03,15,20.00
2008,06,30,03,16,19.90
2008,06,30,03,17,19.90
2008,06,30,03,18,19.90
2008,06,30,03,19,19.90
2008,06,30,03,20,19.90
2008,06,30,03,21,19.90
2008,06,30,03,22,19.90
2008,06,30,03,23,19.90
2008,06,30,03,24,19.90
2008,06,30,03,25,19.80
2008,06,30,03,26,19.80
2008,06,30,03,27,19.80
2008,06,30,03,28,19.80
2008,06,30,03,29,19.80
2008,06,30,03,30,19.80
2008,06,30,03,31,19.80
2008,06,30,03,32,19.80
2008,06,30,03,33,19.80
2008,06,30,03,34,19.80
2008,06,30,03,35,19.80
2008,06,30,03,36,19.80
2008,06,30,03,37,19.80
2008,06,30,03,38,19.80
2008,06,30,03,39,19.80
2008,06,30,03,40,19.70
2008,06,30,03,41,19.70
2008,06,30,03,42,19.70
2008,06,30,03,43,19.70
2008,06,30,03,44,19.70
2008,06,30,03,45,19.70
2008,06,30,03,46,19.70
2008,06,30,03,47,19.70
2008,06,30,03,48,19.70
2008,06,30,03,49,19.70
2008,06,30,03,50,19.70
2008,06,30,03,51,19.70
2008,06,30,03,52,19.70
2008,06,30,03,53,19.70
2008,06,30,03,54,19.70
2008,06,30,03,55,19.70
2008,06,30,03,56,19.70
2008,06,30,03,57,19.70
2008,06,30,03,58,19.70
2008,06,30,03,59,19.70
2008,06,30,04,00,19.60
2008,06,30,04,01,19.60
2008,06,30,04,02,19.60
2008,06,30,04,03,19.60
2008,06,30,04,04,19.60
2008,06,30,04,05,19.60
2008,06,30,04,06,19.60
2008,06,30,04,07,19.60
2008,06,30,04,08,19.60
2008,06,30,04,09,19.60
2008,06,30,04,10,19.60
2008,06,30,04,11,19.60
2008,06,30,04,12,19.60
2008,06,30,04,13,19.60
2008,06,30,04,14,19.50
2008,06,30,04,15,19.50
2008,06,30,04,16,19.50
2008,06,30,04,17,19.50
2008,06,30,04,18,19.40
2008,06,30,04,19,19.40
2008,06,30,04,20,19.40
2008,06,30,04,21,19.40
2008,06,30,04,22,19.40
2008,06,30,04,23,19.30
2008,06,30,04,24,19.30
2008,06,30,04,25,19.30
2008,06,30,04,26,19.30
2008,06,30,04,27,19.30
2008,06,30,04,28,19.20
2008,06,30,04,29,19.20
2008,06,30,04,30,19.20
2008,06,30,04,31,19.20
2008,06,30,04,32,19.20
2008,06,30,04,33,19.20
2008,06,30,04,34,19.20
2008,06,30,04,35,19.20
2008,06,30,04,36,19.20
2008,06,30,04,37,19.20
2008,06,30,04,38,19.20
2008,06,30,04,39,19.20
2008,06,30,04,40,19.20
2008,06,30,04,41,19.20
2008,06,30,04,42,19.20
2008,06,30,04,43,19.10
2008,06,30,04,44,19.10
2008,06,30,04,45,19.10
2008,06,30,04,46,19.10
2008,06,30,04,47,19.10
2008,06,30,04,48,19.00
2008,06,30,04,49,19.00
2008,06,30,04,50,19.00
2008,06,30,04,51,19.00
2008,06,30,04,52,18.90
2008,06,30,04,53,18.90
2008,06,30,04,54,18.90
2008,06,30,04,55,18.90
2008,06,30,04,56,18.90
2008,06,30,04,57,18.90
2008,06,30,04,58,18.90
2008,06,30,04,59,18.90
2008,06,30,05,00,18.90
2008,06,30,05,01,18.80
2008,06,30,05,02,18.80
2008,06,30,05,03,18.80
2008,06,30,05,04,18.70
2008,06,30,05,05,18.70
2008,06,30,05,06,18.70
2008,06,30,05,07,18.70
2008,06,30,05,08,18.60
2008,06,30,05,09,18.60
2008,06,30,05,10,18.60
2008,06,30,05,11,18.60
2008,06,30,05,12,18.50
2008,06,30,05,13,18.50
2008,06,30,05,14,18.50
2008,06,30,05,15,18.40
2008,06,30,05,16,18.40
2008,06,30,05,17,18.40
2008,06,30,05,18,18.40
2008,06,30,05,19,18.40
2008,06,30,05,20,18.40
2008,06,30,05,21,18.40
2008,06,30,05,22,18.40
2008,06,30,05,23,18.40
2008,06,30,05,24,18.40
2008,06,30,05,25,18.40
2008,06,30,05,26,18.40
2008,06,30,05,27,18.40
2008,06,30,05,28,18.40
2008,06,30,05,29,18.40
2008,06,30,05,30,18.40
2008,06,30,05,31,18.40
2008,06,30,05,32,18.40
2008,06,30,05,33,18.40
2008,06,30,05,34,18.40
2008,06,30,05,35,18.40
2008,06,30,05,36,18.40
2008,06,30,05,37,18.40
2008,06,30,05,38,18.40
2008,06,30,05,39,18.40
2008,06,30,05,40,18.40
2008,06,30,05,41,18.40
2008,06,30,05,42,18.30
2008,06,30,05,43,18.30
2008,06,30,05,44,18.30
2008,06,30,05,45,18.30
2008,06,30,05,46,18.30
2008,06,30,05,47,18.30
2008,06,30,05,48,18.30
2008,06,30,05,49,18.30
2008,06,30,05,50,18.30
2008,06,30,05,51,18.30
2008,06,30,05,52,18.30
2008,06,30,05,53,18.30
2008,06,30,05,54,18.30
2008,06,30,05,55,18.30
2008,06,30,05,56,18.30
2008,06,30,05,57,18.30
2008,06,30,05,58,18.30
2008,06,30,05,59,18.30
2008,06,30,06,00,18.30
2008,06,30,06,01,18.40
2008,06,30,06,02,18.40
2008,06,30,06,03,18.40
2008,06,30,06,04,18.40
2008,06,30,06,05,18.40
2008,06,30,06,06,18.40
2008,06,30,06,07,18.40
2008,06,30,06,08,18.40
2008,06,30,06,09,18.40
2008,06,30,06,10,18.40
2008,06,30,06,11,18.40
2008,06,30,06,12,18.40
2008,06,30,06,13,18.40
2008,06,30,06,14,18.50
2008,06,30,06,15,18.50
2008,06,30,06,16,18.50
2008,06,30,06,17,18.50
2008,06,30,06,18,18.50
2008,06,30,06,19,18.60
2008,06,30,06,20,18.60
2008,06,30,06,21,18.60
2008,06,30,06,22,18.60
2008,06,30,06,23,18.60
2008,06,30,06,24,18.60
2008,06,30,06,25,18.60
2008,06,30,06,26,18.60
2008,06,30,06,27,18.60
2008,06,30,06,28,18.60
2008,06,30,06,29,18.60
2008,06,30,06,30,18.60
2008,06,30,06,31,18.70
2008,06,30,06,32,18.70
2008,06,30,06,33,18.70
2008,06,30,06,34,18.70
2008,06,30,06,35,18.70
2008,06,30,06,36,18.70
2008,06,30,06,37,18.70
2008,06,30,06,38,18.70
2008,06,30,06,39,18.70
2008,06,30,06,40,18.70
2008,06,30,06,41,18.70
2008,06,30,06,42,18.70
2008,06,30,06,43,18.70
2008,06,30,06,44,18.70
2008,06,30,06,45,18.70
2008,06,30,06,46,18.70
2008,06,30,06,47,18.70
2008,06,30,06,48,18.70
2008,06,30,06,49,18.70
2008,06,30,06,50,18.70
2008,06,30,06,51,18.70
2008,06,30,06,52,18.70
2008,06,30,06,53,18.70
2008,06,30,06,54,18.70
2008,06,30,06,55,18.70
2008,06,30,06,56,18.70
2008,06,30,06,57,18.70
2008,06,30,06,58,18.70
2008,06,30,06,59,18.70
2008,06,30,07,00,18.70
2008,06,30,07,01,18.70
2008,06,30,07,02,18.70
2008,06,30,07,03,18.80
2008,06,30,07,04,18.80
2008,06,30,07,05,18.80
2008,06,30,07,06,18.80
2008,06,30,07,07,18.80
2008,06,30,07,08,18.80
2008,06,30,07,09,18.80
2008,06,30,07,10,18.80
2008,06,30,07,11,18.80
2008,06,30,07,12,18.80
2008,06,30,07,13,18.80
2008,06,30,07,14,18.90
2008,06,30,07,15,18.90
2008,06,30,07,16,18.90
2008,06,30,07,17,18.90
2008,06,30,07,18,18.90
2008,06,30,07,19,18.90
2008,06,30,07,20,19.00
2008,06,30,07,21,19.00
2008,06,30,07,22,19.10
2008,06,30,07,23,19.10
2008,06,30,07,24,19.10
2008,06,30,07,25,19.10
2008,06,30,07,26,19.20
2008,06,30,07,27,19.20
2008,06,30,07,28,19.20
2008,06,30,07,29,19.20
2008,06,30,07,30,19.20
2008,06,30,07,31,19.20
2008,06,30,07,32,19.20
2008,06,30,07,33,19.20
2008,06,30,07,34,19.20
2008,06,30,07,35,19.20
2008,06,30,07,36,19.20
2008,06,30,07,37,19.20
2008,06,30,07,38,19.20
2008,06,30,07,39,19.20
2008,06,30,07,40,19.20
2008,06,30,07,41,19.20
2008,06,30,07,42,19.20
2008,06,30,07,43,19.20
2008,06,30,07,44,19.20
2008,06,30,07,45,19.20
2008,06,30,07,46,19.20
2008,06,30,07,47,19.20
2008,06,30,07,48,19.20
2008,06,30,07,49,19.20
2008,06,30,07,50,19.20
2008,06,30,07,51,19.30
2008,06,30,07,52,19.30
2008,06,30,07,53,19.30
2008,06,30,07,54,19.30
2008,06,30,07,55,19.30
2008,06,30,07,56,19.30
2008,06,30,07,57,19.40
2008,06,30,07,58,19.40
2008,06,30,07,59,19.40
2008,06,30,08,00,19.40
2008,06,30,08,01,19.50
2008,06,30,08,02,19.50
2008,06,30,08,03,19.50
2008,06,30,08,04,19.60
2008,06,30,08,05,19.60
2008,06,30,08,06,19.60
2008,06,30,08,07,19.60
2008,06,30,08,08,19.70
2008,06,30,08,09,19.70
2008,06,30,08,10,19.70
2008,06,30,08,11,19.70
2008,06,30,08,12,19.80
2008,06,30,08,13,19.80
2008,06,30,08,14,19.80
2008,06,30,08,15,19.90
2008,06,30,08,16,19.90
2008,06,30,08,17,20.00
2008,06,30,08,18,20.00
2008,06,30,08,19,20.10
2008,06,30,08,20,20.10
2008,06,30,08,21,20.20
2008,06,30,08,22,20.20
2008,06,30,08,23,20.30
2008,06,30,08,24,20.30
2008,06,30,08,25,20.40
2008,06,30,08,26,20.50
2008,06,30,08,27,20.60
2008,06,30,08,28,20.60
2008,06,30,08,29,20.80
2008,06,30,08,30,20.80
2008,06,30,08,31,20.90
2008,06,30,08,32,21.00
2008,06,30,08,33,21.00
2008,06,30,08,34,21.10
2008,06,30,08,35,21.10
2008,06,30,08,36,21.10
2008,06,30,08,37,21.10
2008,06,30,08,38,21.10
2008,06,30,08,39,21.10
2008,06,30,08,40,21.10
2008,06,30,08,41,21.00
2008,06,30,08,42,20.90
2008,06,30,08,43,20.90
2008,06,30,08,44,20.80
2008,06,30,08,45,20.70
2008,06,30,08,46,20.60
2008,06,30,08,47,20.50
2008,06,30,08,48,20.40
2008,06,30,08,49,20.30
2008,06,30,08,50,20.20
2008,06,30,08,51,20.00
2008,06,30,08,52,19.90
2008,06,30,08,53,19.80
2008,06,30,08,54,19.70
2008,06,30,08,55,19.60
2008,06,30,08,56,19.50
2008,06,30,08,57,19.40
2008,06,30,08,58,19.30
2008,06,30,08,59,19.20
2008,06,30,09,00,19.10
2008,06,30,09,01,19.10
2008,06,30,09,02,19.10
2008,06,30,09,03,19.10
2008,06,30,09,04,19.10
2008,06,30,09,05,19.10
2008,06,30,09,06,19.20
2008,06,30,09,07,19.20
2008,06,30,09,08,19.30
2008,06,30,09,09,19.40
2008,06,30,09,10,19.40
2008,06,30,09,11,19.50
2008,06,30,09,12,19.60
2008,06,30,09,13,19.70
2008,06,30,09,14,19.80
2008,06,30,09,15,19.90
2008,06,30,09,16,20.00
2008,06,30,09,17,20.20
2008,06,30,09,18,20.20
2008,06,30,09,19,20.30
2008,06,30,09,20,20.30
2008,06,30,09,21,20.30
2008,06,30,09,22,20.30
2008,06,30,09,23,20.30
2008,06,30,09,24,20.30
2008,06,30,09,25,20.40
2008,06,30,09,26,20.40
2008,06,30,09,27,20.40
2008,06,30,09,28,20.40
2008,06,30,09,29,20.40
2008,06,30,09,30,20.40
2008,06,30,09,31,20.40
2008,06,30,09,32,20.40
2008,06,30,09,33,20.40
2008,06,30,09,34,20.40
2008,06,30,09,35,20.40
2008,06,30,09,36,20.50
2008,06,30,09,37,20.60
2008,06,30,09,38,20.70
2008,06,30,09,39,20.80
2008,06,30,09,40,20.90
2008,06,30,09,41,21.00
2008,06,30,09,42,21.20
2008,06,30,09,43,21.30
2008,06,30,09,44,21.40
2008,06,30,09,45,21.50
2008,06,30,09,46,21.60
2008,06,30,09,47,21.70
2008,06,30,09,48,21.80
2008,06,30,09,49,21.90
2008,06,30,09,50,22.00
2008,06,30,09,51,22.10
2008,06,30,09,52,22.30
2008,06,30,09,53,22.30
2008,06,30,09,54,22.40
2008,06,30,09,55,22.40
2008,06,30,09,56,22.50
2008,06,30,09,57,22.50
2008,06,30,09,58,22.50
2008,06,30,09,59,22.50
2008,06,30,10,00,22.50
2008,06,30,10,01,22.50
2008,06,30,10,02,22.60
2008,06,30,10,03,22.60
2008,06,30,10,04,22.60
2008,06,30,10,05,22.60
2008,06,30,10,06,22.70
2008,06,30,10,07,22.70
2008,06,30,10,08,22.80
2008,06,30,10,09,22.80
2008,06,30,10,10,22.80
2008,06,30,10,11,22.80
2008,06,30,10,12,22.80
2008,06,30,10,13,22.80
2008,06,30,10,14,22.90
2008,06,30,10,15,22.90
2008,06,30,10,16,22.90
2008,06,30,10,17,23.00
2008,06,30,10,18,23.00
2008,06,30,10,19,23.10
2008,06,30,10,20,23.20
2008,06,30,10,21,23.30
2008,06,30,10,22,23.50
2008,06,30,10,23,23.60
2008,06,30,10,24,23.80
2008,06,30,10,25,23.90
2008,06,30,10,26,23.90
2008,06,30,10,27,23.90
2008,06,30,10,28,24.00
2008,06,30,10,29,24.10
2008,06,30,10,30,24.10
2008,06,30,10,31,24.10
2008,06,30,10,32,24.10
2008,06,30,10,33,24.10
2008,06,30,10,34,24.10
2008,06,30,10,35,24.00
2008,06,30,10,36,24.00
2008,06,30,10,37,23.90
2008,06,30,10,38,23.90
2008,06,30,10,39,23.90
2008,06,30,10,40,23.90
2008,06,30,10,41,23.90
2008,06,30,10,42,23.90
2008,06,30,10,43,24.00
2008,06,30,10,44,24.10
2008,06,30,10,45,24.20
2008,06,30,10,46,24.20
2008,06,30,10,47,24.20
2008,06,30,10,48,24.20
2008,06,30,10,49,24.20
2008,06,30,10,50,24.30
2008,06,30,10,51,24.30
2008,06,30,10,52,24.50
2008,06,30,10,53,24.50
2008,06,30,10,54,24.60
2008,06,30,10,55,24.70
2008,06,30,10,56,24.70
2008,06,30,10,57,24.80
2008,06,30,10,58,24.90
2008,06,30,10,59,25.00
2008,06,30,11,00,25.00
2008,06,30,11,01,25.10
2008,06,30,11,02,25.20
2008,06,30,11,03,25.20
2008,06,30,11,04,25.30
2008,06,30,11,05,25.40
2008,06,30,11,06,25.40
2008,06,30,11,07,25.50
2008,06,30,11,08,25.50
2008,06,30,11,09,25.60
2008,06,30,11,10,25.50
2008,06,30,11,11,25.50
2008,06,30,11,12,25.40
2008,06,30,11,13,25.40
2008,06,30,11,14,25.30
2008,06,30,11,15,25.30
2008,06,30,11,16,25.30
2008,06,30,11,17,25.30
2008,06,30,11,18,25.30
2008,06,30,11,19,25.30
2008,06,30,11,20,25.30
2008,06,30,11,21,25.40
2008,06,30,11,22,25.50
2008,06,30,11,23,25.60
2008,06,30,11,24,25.60
2008,06,30,11,25,25.70
2008,06,30,11,26,25.80
2008,06,30,11,27,25.90
2008,06,30,11,28,25.90
2008,06,30,11,29,26.00
2008,06,30,11,30,26.10
2008,06,30,11,31,26.20
2008,06,30,11,32,26.30
2008,06,30,11,33,26.40
2008,06,30,11,34,26.50
2008,06,30,11,35,26.60
2008,06,30,11,36,26.60
2008,06,30,11,37,26.70
2008,06,30,11,38,26.70
2008,06,30,11,39,26.80
2008,06,30,11,40,26.80
2008,06,30,11,41,26.90
2008,06,30,11,42,26.90
2008,06,30,11,43,26.90
2008,06,30,11,44,26.90
2008,06,30,11,45,27.00
2008,06,30,11,46,27.00
2008,06,30,11,47,27.00
2008,06,30,11,48,27.00
2008,06,30,11,49,27.00
2008,06,30,11,50,27.10
2008,06,30,11,51,27.10
2008,06,30,11,52,27.10
2008,06,30,11,53,27.10
2008,06,30,11,54,27.20
2008,06,30,11,55,27.20
2008,06,30,11,56,27.20
2008,06,30,11,57,27.20
2008,06,30,11,58,27.20
2008,06,30,11,59,27.20
2008,06,30,12,00,27.20
2008,06,30,12,01,27.10
2008,06,30,12,02,27.10
2008,06,30,12,03,27.10
2008,06,30,12,04,27.00
2008,06,30,12,05,27.00
2008,06,30,12,06,26.90
2008,06,30,12,07,26.90
2008,06,30,12,08,26.90
2008,06,30,12,09,26.90
2008,06,30,12,10,26.80
2008,06,30,12,11,26.70
2008,06,30,12,12,26.60
2008,06,30,12,13,26.50
2008,06,30,12,14,26.40
2008,06,30,12,15,26.30
2008,06,30,12,16,26.10
2008,06,30,12,17,26.00
2008,06,30,12,18,25.90
2008,06,30,12,19,25.90
2008,06,30,12,20,25.80
2008,06,30,12,21,25.80
2008,06,30,12,22,25.80
2008,06,30,12,23,25.80
2008,06,30,12,24,25.80
2008,06,30,12,25,25.80
2008,06,30,12,26,25.90
2008,06,30,12,27,25.90
2008,06,30,12,28,26.00
2008,06,30,12,29,26.10
2008,06,30,12,30,26.20
2008,06,30,12,31,26.20
2008,06,30,12,32,26.30
2008,06,30,12,33,26.30
2008,06,30,12,34,26.40
2008,06,30,12,35,26.50
2008,06,30,12,36,26.60
2008,06,30,12,37,26.70
2008,06,30,12,38,26.80
2008,06,30,12,39,26.90
2008,06,30,12,40,27.00
2008,06,30,12,41,27.00
2008,06,30,12,42,27.10
2008,06,30,12,43,27.10
2008,06,30,12,44,27.20
2008,06,30,12,45,27.20
2008,06,30,12,46,27.30
2008,06,30,12,47,27.30
2008,06,30,12,48,27.30
2008,06,30,12,49,27.30
2008,06,30,12,50,27.30
2008,06,30,12,51,27.40
2008,06,30,12,52,27.40
2008,06,30,12,53,27.40
2008,06,30,12,54,27.40
2008,06,30,12,55,27.40
2008,06,30,12,56,27.40
2008,06,30,12,57,27.40
2008,06,30,12,58,27.40
2008,06,30,12,59,27.40
2008,06,30,13,00,27.40
2008,06,30,13,01,27.50
2008,06,30,13,02,27.50
2008,06,30,13,03,27.50
2008,06,30,13,04,27.40
2008,06,30,13,05,27.40
2008,06,30,13,06,27.30
2008,06,30,13,07,27.30
2008,06,30,13,08,27.30
2008,06,30,13,09,27.40
2008,06,30,13,10,27.40
2008,06,30,13,11,27.40
2008,06,30,13,12,27.50
2008,06,30,13,13,27.60
2008,06,30,13,14,27.70
2008,06,30,13,15,27.80
2008,06,30,13,16,27.80
2008,06,30,13,17,27.80
2008,06,30,13,18,27.80
2008,06,30,13,19,27.80
2008,06,30,13,20,27.80
2008,06,30,13,21,27.90
2008,06,30,13,22,27.90
2008,06,30,13,23,27.90
2008,06,30,13,24,28.00
2008,06,30,13,25,28.10
2008,06,30,13,26,28.10
2008,06,30,13,27,28.20
2008,06,30,13,28,28.20
2008,06,30,13,29,28.30
2008,06,30,13,30,28.40
2008,06,30,13,31,28.50
2008,06,30,13,32,28.60
2008,06,30,13,33,28.70
2008,06,30,13,34,28.70
2008,06,30,13,35,28.70
2008,06,30,13,36,28.70
2008,06,30,13,37,28.80
2008,06,30,13,38,28.80
2008,06,30,13,39,28.70
2008,06,30,13,40,28.70
2008,06,30,13,41,28.70
2008,06,30,13,42,28.60
2008,06,30,13,43,28.40
2008,06,30,13,44,28.30
2008,06,30,13,45,28.20
2008,06,30,13,46,28.10
2008,06,30,13,47,27.90
2008,06,30,13,48,27.80
2008,06,30,13,49,27.80
2008,06,30,13,50,27.80
2008,06,30,13,51,27.80
2008,06,30,13,52,27.80
2008,06,30,13,53,27.80
2008,06,30,13,54,27.90
2008,06,30,13,55,27.90
2008,06,30,13,56,28.00
2008,06,30,13,57,28.10
2008,06,30,13,58,28.10
2008,06,30,13,59,28.20
2008,06,30,14,00,28.30
2008,06,30,14,01,28.40
2008,06,30,14,02,28.50
2008,06,30,14,03,28.60
2008,06,30,14,04,28.70
2008,06,30,14,05,28.80
2008,06,30,14,06,28.90
2008,06,30,14,07,29.00
2008,06,30,14,08,29.10
2008,06,30,14,09,29.20
2008,06,30,14,10,29.30
2008,06,30,14,11,29.40
2008,06,30,14,12,29.50
2008,06,30,14,13,29.60
2008,06,30,14,14,29.60
2008,06,30,14,15,29.60
2008,06,30,14,16,29.60
2008,06,30,14,17,29.60
2008,06,30,14,18,29.50
2008,06,30,14,19,29.60
2008,06,30,14,20,29.60
2008,06,30,14,21,29.60
2008,06,30,14,22,29.60
2008,06,30,14,23,29.60
2008,06,30,14,24,29.70
2008,06,30,14,25,29.70
2008,06,30,14,26,29.80
2008,06,30,14,27,29.90
2008,06,30,14,28,30.00
2008,06,30,14,29,30.00
2008,06,30,14,30,30.10
2008,06,30,14,31,30.10
2008,06,30,14,32,30.20
2008,06,30,14,33,30.20
2008,06,30,14,34,30.20
2008,06,30,14,35,30.30
2008,06,30,14,36,30.30
2008,06,30,14,37,30.30
2008,06,30,14,38,30.30
2008,06,30,14,39,30.30
2008,06,30,14,40,30.30
2008,06,30,14,41,30.30
2008,06,30,14,42,30.40
2008,06,30,14,43,30.40
2008,06,30,14,44,30.50
2008,06,30,14,45,30.40
2008,06,30,14,46,30.50
2008,06,30,14,47,30.50
2008,06,30,14,48,30.40
2008,06,30,14,49,30.40
2008,06,30,14,50,30.30
2008,06,30,14,51,30.20
2008,06,30,14,52,30.20
2008,06,30,14,53,30.20
2008,06,30,14,54,30.20
2008,06,30,14,55,30.10
2008,06,30,14,56,30.10
2008,06,30,14,57,30.10
2008,06,30,14,58,30.10
2008,06,30,14,59,30.00
2008,06,30,15,00,29.90
2008,06,30,15,01,29.90
2008,06,30,15,02,29.90
2008,06,30,15,03,29.90
2008,06,30,15,04,29.80
2008,06,30,15,05,29.80
2008,06,30,15,06,29.80
2008,06,30,15,07,29.80
2008,06,30,15,08,29.90
2008,06,30,15,09,29.90
2008,06,30,15,10,29.90
2008,06,30,15,11,29.90
2008,06,30,15,12,30.00
2008,06,30,15,13,30.10
2008,06,30,15,14,30.10
2008,06,30,15,15,30.20
2008,06,30,15,16,30.20
2008,06,30,15,17,30.30
2008,06,30,15,18,30.30
2008,06,30,15,19,30.30
2008,06,30,15,20,30.30
2008,06,30,15,21,30.30
2008,06,30,15,22,30.30
2008,06,30,15,23,30.30
2008,06,30,15,24,30.30
2008,06,30,15,25,30.20
2008,06,30,15,26,30.20
2008,06,30,15,27,30.20
2008,06,30,15,28,30.10
2008,06,30,15,29,30.10
2008,06,30,15,30,30.10
2008,06,30,15,31,30.00
2008,06,30,15,32,30.00
2008,06,30,15,33,29.90
2008,06,30,15,34,29.80
2008,06,30,15,35,29.80
2008,06,30,15,36,29.80
2008,06,30,15,37,29.70
2008,06,30,15,38,29.70
2008,06,30,15,39,29.70
2008,06,30,15,40,29.70
2008,06,30,15,41,29.70
2008,06,30,15,42,29.70
2008,06,30,15,43,29.60
2008,06,30,15,44,29.60
2008,06,30,15,45,29.60
2008,06,30,15,46,29.50
2008,06,30,15,47,29.50
2008,06,30,15,48,29.40
2008,06,30,15,49,29.30
2008,06,30,15,50,29.30
2008,06,30,15,51,29.20
2008,06,30,15,52,29.20
2008,06,30,15,53,29.10
2008,06,30,15,54,29.00
2008,06,30,15,55,29.00
2008,06,30,15,56,28.90
2008,06,30,15,57,28.90
2008,06,30,15,58,28.80
2008,06,30,15,59,28.70
2008,06,30,16,00,28.60
2008,06,30,16,01,28.60
2008,06,30,16,02,28.60
2008,06,30,16,03,28.60
2008,06,30,16,04,28.50
2008,06,30,16,05,28.50
2008,06,30,16,06,28.50
2008,06,30,16,07,28.60
2008,06,30,16,08,28.70
2008,06,30,16,09,28.70
2008,06,30,16,10,28.80
2008,06,30,16,11,28.80
2008,06,30,16,12,28.90
2008,06,30,16,13,28.90
2008,06,30,16,14,28.90
2008,06,30,16,15,28.80
2008,06,30,16,16,28.80
2008,06,30,16,17,28.80
2008,06,30,16,18,28.90
2008,06,30,16,19,28.90
2008,06,30,16,20,28.90
2008,06,30,16,21,28.90
2008,06,30,16,22,28.90
2008,06,30,16,23,28.90
2008,06,30,16,24,28.90
2008,06,30,16,25,28.90
2008,06,30,16,26,28.90
2008,06,30,16,27,28.90
2008,06,30,16,28,28.90
2008,06,30,16,29,28.90
2008,06,30,16,30,28.80
2008,06,30,16,31,28.80
2008,06,30,16,32,28.80
2008,06,30,16,33,28.80
2008,06,30,16,34,28.80
2008,06,30,16,35,28.70
2008,06,30,16,36,28.70
2008,06,30,16,37,28.70
2008,06,30,16,38,28.70
2008,06,30,16,39,28.80
2008,06,30,16,40,28.80
2008,06,30,16,41,28.90
2008,06,30,16,42,29.00
2008,06,30,16,43,29.10
2008,06,30,16,44,29.10
2008,06,30,16,45,29.10
2008,06,30,16,46,29.10
2008,06,30,16,47,29.20
2008,06,30,16,48,29.30
2008,06,30,16,49,29.40
2008,06,30,16,50,29.50
2008,06,30,16,51,29.60
2008,06,30,16,52,29.80
2008,06,30,16,53,29.80
2008,06,30,16,54,29.90
2008,06,30,16,55,29.80
2008,06,30,16,56,29.90
2008,06,30,16,57,29.90
2008,06,30,16,58,29.80
2008,06,30,16,59,29.90
2008,06,30,17,00,29.90
2008,06,30,17,01,29.90
2008,06,30,17,02,30.00
2008,06,30,17,03,30.00
2008,06,30,17,04,30.10
2008,06,30,17,05,30.10
2008,06,30,17,06,30.20
2008,06,30,17,07,30.20
2008,06,30,17,08,30.20
2008,06,30,17,09,30.30
2008,06,30,17,10,30.30
2008,06,30,17,11,30.30
2008,06,30,17,12,30.40
2008,06,30,17,13,30.50
2008,06,30,17,14,30.60
2008,06,30,17,15,30.60
2008,06,30,17,16,30.60
2008,06,30,17,17,30.60
2008,06,30,17,18,30.60
2008,06,30,17,19,30.60